[[{"header":{"parameterUnit":"m.s-1","parameterCategory":1,"la1":30.2991,"la2":30.254,"lo1":-89.0895,"lo2":-89.0444,"dy":0.0017,"dx":0.0017,"nx":28,"ny":28,"refTime":"2024-05-18T09:00:00:Z","depth":0,"parameterNumber":2,"parameterNumberName":"U-component_of_WINDS"},"data":[0,0,0,0,0,0,0,0,0,0,0,0,0,0,0,0,0,0,0,0,0,0,0,0,0,0,0,0,0,0,0,0,0,0,0,0,0,0,0,0,0,0,0,0,0,0,0,0,0,0,0,0,0,0,0,0,0,0,4.2635,4.2635,0,4.2577,4.2577,4.2576,4.253,4.253,4.2529,4.2529,4.2464,4.2463,4.2461,0,0,0,0,0,0,0,0,0,0,0,0,0,4.2704,4.2703,4.2635,4.2635,4.2634,4.2577,4.2577,4.2576,4.253,4.253,4.2529,4.2528,4.2464,4.2463,4.2461,0,0,0,0,0,0,0,0,0,0,0,0,0,4.2663,4.2702,4.2636,4.2605,4.2601,4.2578,4.2577,4.2576,4.253,4.253,4.2529,4.2528,4.2465,4.2463,4.2461,4.2462,0,0,4.2455,4.2454,0,0,0,0,0,0,0,0,4.2665,4.266,4.261,4.2607,4.2603,4.256,4.2577,4.2537,4.253,4.2557,4.2529,4.2528,4.2496,4.2492,4.2482,4.2459,4.2456,4.2455,4.2454,4.2453,4.2452,0,0,0,0,0,0,0,4.2668,4.2662,4.2612,4.2609,4.2605,4.2592,4.2586,4.2569,4.2531,4.2555,4.2551,4.2545,4.2494,4.2484,4.248,4.2455,4.2455,4.2453,4.2452,4.2451,4.2432,4.2433,0,0,0,0,0,0,4.2676,4.2665,4.2614,4.261,4.2633,4.2592,4.2584,4.2574,4.2531,4.2524,4.2546,4.2543,4.2488,4.2482,4.2478,4.2477,4.2453,4.2451,4.245,4.2432,4.2432,4.2433,0,0,0,0,0,0,4.2678,4.2672,4.2616,4.2637,4.2629,4.2591,4.2581,4.2574,4.2564,4.2524,4.2517,4.2543,4.2487,4.248,4.2467,4.2474,4.245,4.2448,4.2431,4.2432,4.2433,4.2475,0,0,0,0,0,0,4.268,4.2673,4.2673,4.2637,4.2628,4.2608,4.2581,4.2573,4.2561,4.2557,4.2519,4.2512,4.2486,4.247,4.2465,4.2471,4.2447,4.243,4.2431,4.2432,4.2473,4.2478,4.2482,0,0,0,0,0,4.2683,4.2686,4.2674,4.2668,4.2628,4.2608,4.2603,4.2574,4.2562,4.2562,4.2537,4.2514,4.2475,4.2469,4.2463,4.2469,4.2429,4.2431,4.2432,4.2471,4.2477,4.2482,0,0,0,0,0,0,4.2721,4.2681,4.2666,4.2659,4.2638,4.2601,4.2599,4.258,4.2561,4.2558,4.2521,4.2513,4.2504,4.2485,4.2479,4.2468,4.2449,4.2449,4.2481,4.2486,4.249,4.2494,4.2445,0,0,0,0,0,4.273,4.2718,4.2683,4.2679,4.267,4.2637,4.2627,4.2607,4.2583,4.2573,4.2547,4.2523,4.2506,4.2495,4.2476,4.2471,4.2462,4.2472,4.2476,4.248,4.248,4.2477,4.2481,4.2438,4.2438,4.2438,0,0,4.2745,4.2722,4.2716,4.2687,4.2668,4.2656,4.2629,4.2617,4.2608,4.257,4.2557,4.2538,4.2509,4.25,4.2495,4.2484,4.249,4.2482,4.2485,4.2483,4.2479,4.2483,4.2487,4.2439,4.2439,4.2439,0,0,4.2768,4.2749,4.2745,4.2728,4.2701,4.268,4.2679,4.2645,4.2632,4.2618,4.259,4.2578,4.2549,4.253,4.2517,4.2536,4.2514,4.2531,4.2553,4.255,4.2554,4.2557,4.2564,4.2567,4.2532,4.2532,4.2532,0,4.279,4.2773,4.2745,4.2736,4.2724,4.2692,4.2688,4.2672,4.2639,4.2631,4.2621,4.2585,4.2563,4.255,4.2555,4.2545,4.2543,4.2534,4.2556,4.2558,4.2561,4.2567,4.257,4.2534,4.2534,4.2534,4.2533,0,4.2802,4.2791,4.2791,4.2763,4.2751,4.2744,4.2715,4.2706,4.2688,4.2668,4.2655,4.2628,4.2605,4.2601,4.2581,4.2585,4.258,4.2563,4.2543,4.2567,4.2573,4.2575,4.2537,4.2537,4.2536,4.2535,0,0,4.2846,4.2805,4.2806,4.2794,4.2763,4.2753,4.2745,4.2725,4.2718,4.2698,4.269,4.2668,4.2653,4.2638,4.2617,4.2615,4.2633,4.2598,4.2597,4.2606,4.2637,4.265,4.2653,4.2619,4.262,4.262,4.264,0,4.2864,4.2849,4.2825,4.2818,4.2808,4.2779,4.2772,4.2753,4.2734,4.2722,4.27,4.2686,4.2667,4.2658,4.2655,4.2632,4.2639,4.263,4.2611,4.2611,4.2619,4.2656,4.2668,4.2688,4.2642,4.2642,4.2642,0,4.2882,4.2866,4.2859,4.2832,4.2826,4.2821,4.2801,4.279,4.2767,4.2754,4.2739,4.2717,4.2707,4.269,4.2676,4.2671,4.2662,4.265,4.265,4.2646,4.2627,4.2653,4.2693,4.2696,4.2645,4.2645,4.2645,0,4.2915,4.2891,4.2885,4.2875,4.2843,4.284,4.2826,4.2803,4.2793,4.2775,4.2769,4.275,4.2739,4.2725,4.2698,4.2688,4.2688,4.2668,4.2676,4.2676,4.2675,4.2676,4.2715,4.2671,4.2671,4.2671,4.2671,0,4.2937,4.2934,4.2899,4.2895,4.2891,4.2863,4.286,4.2843,4.2824,4.2815,4.2789,4.2781,4.2747,4.2735,4.2715,4.2707,4.2702,4.2691,4.2685,4.2693,4.2694,4.2685,4.2683,4.2672,4.2672,4.2671,4.2671,0,4.2972,4.2949,4.294,4.2911,4.2904,4.2902,4.2877,4.2872,4.2853,4.2843,4.2839,4.2809,4.2795,4.2768,4.2744,4.2731,4.2727,4.2717,4.2735,4.2732,4.2741,4.2741,4.2775,4.2779,4.2734,4.2734,4.2735,0,4.2987,4.2984,4.2957,4.295,4.2938,4.2928,4.2918,4.2892,4.2883,4.2859,4.2856,4.2841,4.2826,4.2804,4.278,4.2763,4.2752,4.2766,4.2749,4.2758,4.2752,4.2753,4.2752,4.2769,4.277,4.277,4.2771,0,4.3017,4.3007,4.2995,4.298,4.297,4.2956,4.2941,4.2937,4.2906,4.2898,4.2884,4.2873,4.2852,4.2836,4.2816,4.2801,4.2781,4.2777,4.2777,4.2785,4.2795,4.279,4.2745,4.2775,4.2775,4.2774,4.2774,4.2774,4.3042,4.3039,4.302,4.3008,4.2995,4.2982,4.2976,4.2958,4.2947,4.2928,4.2913,4.2901,4.288,4.2852,4.2838,4.2828,4.2818,4.2819,4.2819,4.282,4.2823,4.2798,4.2824,4.2824,4.2824,4.2823,4.2823,0,4.3071,4.3058,4.3047,4.3028,4.3019,4.3004,4.2987,4.298,4.297,4.2954,4.2941,4.2926,4.2912,4.2888,4.2871,4.2868,4.2858,4.2864,4.2864,4.2861,4.2833,4.2834,4.2872,4.2872,4.2872,4.2872,4.2872,4.2872,4.3084,4.3079,4.3067,4.3055,4.3041,4.303,4.3022,4.301,4.2997,4.2982,4.2971,4.2956,4.2937,4.2919,4.2906,4.2899,4.2894,4.2903,4.2893,4.2867,4.2862,4.2858,4.2859,4.2902,4.2902,4.2922,4.2922,4.2922]},{"header":{"parameterUnit":"m.s-1","parameterCategory":1,"la1":30.2991,"la2":30.254,"lo1":-89.0895,"lo2":-89.0444,"dy":0.0017,"dx":0.0017,"nx":28,"ny":28,"refTime":"2024-05-18T09:00:00:Z","depth":0,"parameterNumber":3,"parameterNumberName":"V-component_of_WINDS"},"data":[0,0,0,0,0,0,0,0,0,0,0,0,0,0,0,0,0,0,0,0,0,0,0,0,0,0,0,0,0,0,0,0,0,0,0,0,0,0,0,0,0,0,0,0,0,0,0,0,0,0,0,0,0,0,0,0,0,0,-0.7377,-0.7369,0,-0.6602,-0.6593,-0.6584,-0.6374,-0.6379,-0.6383,-0.6388,-0.5578,-0.5552,-0.5527,0,0,0,0,0,0,0,0,0,0,0,0,0,-0.8663,-0.8641,-0.7378,-0.7368,-0.7358,-0.6604,-0.6593,-0.6582,-0.6373,-0.6379,-0.6385,-0.639,-0.5586,-0.5556,-0.5525,0,0,0,0,0,0,0,0,0,0,0,0,0,-0.8018,-0.8633,-0.7379,-0.7164,-0.7137,-0.6606,-0.6592,-0.6579,-0.6372,-0.6379,-0.6386,-0.6392,-0.5596,-0.5559,-0.552,-0.5143,0,0,-0.5402,-0.5385,0,0,0,0,0,0,0,0,-0.8055,-0.7971,-0.7205,-0.7177,-0.7146,-0.6592,-0.6749,-0.6097,-0.637,-0.6662,-0.6388,-0.6396,-0.5908,-0.5845,-0.5683,-0.5106,-0.5071,-0.5398,-0.5375,-0.5358,-0.5347,0,0,0,0,0,0,0,-0.81,-0.8003,-0.707,-0.7194,-0.7158,-0.7101,-0.7017,-0.6624,-0.6255,-0.6637,-0.662,-0.6532,-0.5894,-0.5721,-0.5663,-0.5059,-0.5399,-0.5365,-0.5341,-0.5326,-0.4132,-0.4124,0,0,0,0,0,0,-0.8184,-0.8042,-0.7095,-0.7047,-0.7627,-0.7072,-0.6978,-0.6763,-0.6259,-0.619,-0.6527,-0.6525,-0.5784,-0.5708,-0.5634,-0.5157,-0.5359,-0.5322,-0.53,-0.4141,-0.413,-0.4121,0,0,0,0,0,0,-0.8212,-0.8101,-0.7126,-0.7539,-0.7411,-0.7043,-0.6803,-0.6744,-0.6571,-0.6176,-0.6108,-0.6419,-0.5787,-0.5688,-0.5268,-0.5126,-0.5305,-0.5269,-0.4151,-0.4137,-0.4126,-0.4204,0,0,0,0,0,0,-0.825,-0.8113,-0.7968,-0.7538,-0.739,-0.6777,-0.6794,-0.6724,-0.6507,-0.6497,-0.6057,-0.5991,-0.5784,-0.5327,-0.523,-0.5076,-0.5239,-0.4161,-0.4145,-0.413,-0.4212,-0.4195,-0.4181,0,0,0,0,0,-0.8296,-0.8018,-0.7962,-0.7849,-0.7203,-0.677,-0.6684,-0.6457,-0.6497,-0.6346,-0.6093,-0.6005,-0.516,-0.5286,-0.5174,-0.5007,-0.4169,-0.4149,-0.4131,-0.4219,-0.4199,-0.4181,0,0,0,0,0,0,-0.8434,-0.7957,-0.789,-0.7465,-0.7161,-0.6735,-0.6538,-0.6443,-0.6115,-0.6119,-0.5847,-0.5749,-0.5347,-0.5135,-0.5284,-0.4616,-0.4663,-0.4621,-0.4768,-0.4745,-0.473,-0.4786,-0.5207,0,0,0,0,0,-0.8417,-0.811,-0.7708,-0.7371,-0.7222,-0.6908,-0.671,-0.6563,-0.6233,-0.6102,-0.5817,-0.5497,-0.5159,-0.4941,-0.4608,-0.4184,-0.4082,-0.4014,-0.3999,-0.3988,-0.3952,-0.371,-0.3674,-0.4059,-0.4059,-0.4059,0,0,-0.8373,-0.8075,-0.7896,-0.7391,-0.7137,-0.6821,-0.68,-0.6465,-0.6226,-0.6048,-0.5635,-0.5417,-0.5041,-0.4617,-0.4416,-0.4428,-0.3825,-0.3964,-0.3958,-0.3926,-0.3687,-0.3651,-0.3618,-0.4046,-0.4048,-0.405,0,0,-0.8132,-0.7879,-0.7569,-0.7318,-0.6937,-0.673,-0.6658,-0.6247,-0.6096,-0.5679,-0.5539,-0.525,-0.4674,-0.4412,-0.4204,-0.3872,-0.3777,-0.3771,-0.3687,-0.3454,-0.3424,-0.3395,-0.3273,-0.3233,-0.3739,-0.3739,-0.3739,0,-0.8124,-0.7647,-0.7421,-0.7094,-0.6874,-0.6708,-0.639,-0.6155,-0.5683,-0.5534,-0.5557,-0.4833,-0.4568,-0.408,-0.4,-0.3838,-0.3742,-0.3816,-0.3448,-0.3417,-0.3387,-0.3267,-0.3222,-0.374,-0.374,-0.374,-0.374,0,-0.7654,-0.7326,-0.7121,-0.6676,-0.6434,-0.6114,-0.5836,-0.5618,-0.5494,-0.5285,-0.4861,-0.454,-0.4139,-0.4014,-0.3886,-0.3507,-0.3526,-0.3503,-0.3542,-0.3356,-0.3238,-0.3191,-0.3742,-0.3742,-0.3741,-0.3741,0,0,-0.7469,-0.691,-0.6838,-0.6634,-0.6205,-0.5943,-0.5616,-0.523,-0.5047,-0.4729,-0.4444,-0.3965,-0.3941,-0.3705,-0.3548,-0.3345,-0.3099,-0.3344,-0.3331,-0.3306,-0.2658,-0.2675,-0.2625,-0.3038,-0.3028,-0.302,-0.2688,0,-0.717,-0.6582,-0.6372,-0.5886,-0.5578,-0.5419,-0.5133,-0.4837,-0.4634,-0.434,-0.4114,-0.3778,-0.3774,-0.3631,-0.3424,-0.3173,-0.2964,-0.3195,-0.2764,-0.2751,-0.2857,-0.2564,-0.2579,-0.228,-0.2641,-0.2633,-0.2627,0,-0.674,-0.6423,-0.5909,-0.552,-0.5383,-0.513,-0.476,-0.4483,-0.4144,-0.4011,-0.3753,-0.3611,-0.3258,-0.3328,-0.2837,-0.2999,-0.2812,-0.2663,-0.2646,-0.259,-0.2673,-0.2496,-0.2179,-0.2133,-0.2553,-0.2559,-0.2565,0,-0.6651,-0.6096,-0.5716,-0.5547,-0.5086,-0.4911,-0.471,-0.4379,-0.4161,-0.3838,-0.3693,-0.3333,-0.3133,-0.2856,-0.262,-0.2693,-0.2149,-0.2199,-0.2024,-0.203,-0.1909,-0.1919,-0.1553,-0.1801,-0.1802,-0.1802,-0.1803,0,-0.6335,-0.6024,-0.567,-0.5436,-0.5084,-0.4846,-0.4502,-0.429,-0.3998,-0.3717,-0.3558,-0.3297,-0.3005,-0.2705,-0.2519,-0.2139,-0.2051,-0.193,-0.1883,-0.194,-0.1955,-0.1807,-0.182,-0.179,-0.1793,-0.1795,-0.1797,0,-0.6171,-0.5923,-0.5497,-0.5099,-0.4991,-0.4749,-0.4405,-0.4169,-0.3965,-0.3611,-0.3514,-0.3189,-0.2829,-0.2569,-0.2102,-0.1977,-0.1569,-0.1525,-0.1684,-0.1659,-0.1497,-0.1515,-0.1018,-0.094,-0.1248,-0.1245,-0.1243,0,-0.5982,-0.5741,-0.5319,-0.5122,-0.4923,-0.4608,-0.4387,-0.4145,-0.3921,-0.352,-0.3332,-0.2964,-0.2654,-0.2085,-0.1805,-0.1448,-0.139,-0.1242,-0.1334,-0.1401,-0.1381,-0.1397,-0.137,-0.1226,-0.1223,-0.1222,-0.122,0,-0.5671,-0.5562,-0.5253,-0.49,-0.4644,-0.4353,-0.406,-0.3907,-0.3613,-0.3369,-0.3002,-0.2763,-0.2291,-0.1924,-0.1542,-0.133,-0.1223,-0.1196,-0.1135,-0.1187,-0.1288,-0.1227,-0.1641,-0.1205,-0.1207,-0.1208,-0.1209,-0.1209,-0.5483,-0.5262,-0.4932,-0.4592,-0.4349,-0.4081,-0.3841,-0.3609,-0.33,-0.29,-0.2776,-0.2395,-0.2064,-0.154,-0.1325,-0.1021,-0.1026,-0.094,-0.0917,-0.0898,-0.0899,-0.1344,-0.0951,-0.0951,-0.0951,-0.0952,-0.0952,0,-0.516,-0.4942,-0.4634,-0.4232,-0.3966,-0.39,-0.3573,-0.3352,-0.3021,-0.2724,-0.2426,-0.2005,-0.1651,-0.1347,-0.0979,-0.0795,-0.0737,-0.0706,-0.0713,-0.0665,-0.0917,-0.1004,-0.0759,-0.0759,-0.0759,-0.0759,-0.0759,-0.0759,-0.496,-0.4581,-0.4434,-0.3932,-0.3714,-0.3344,-0.3163,-0.2914,-0.2676,-0.2215,-0.1922,-0.173,-0.1428,-0.1039,-0.0711,-0.0631,-0.05,-0.048,-0.0387,-0.0625,-0.0648,-0.0669,-0.0749,-0.0455,-0.0454,-0.016,-0.0157,-0.0155]}]]